{"data":{"norad_id":61513,"epoch":"2026-09-21T02:48:03.912480Z","epoch_age_seconds":138701,"freshness":"FRESH","line1":"1 61513U 24183E   26264.11671195 -.00001394  00000+0 -30146-4 0  9991","line2":"2 61513  53.1603 312.5601 0000989  75.5731 284.5381 15.34392526109605","mean_motion":15.34392526,"eccentricity":9.89e-5,"inclination_deg":53.1603,"raan_deg":312.5601,"arg_perigee_deg":75.5731,"mean_anomaly_deg":284.5381,"bstar":-3.0146e-5,"rev_number":10960,"period_min":93.848215212174,"perigee_km":462.04889330359,"apogee_km":463.40201589711,"semimajor_km":6840.8624546004,"source":"CELESTRAK","updated_at":"2026-09-22T09:00:49.354967Z"}}